This is the latest recevied weather packets stored in our database for station/object WD7OO. If no packets are shown the sender has not sent any weather packets the latest 10 day(s).
| Time | Temp. | Humidity | Pressure | Rain* | Wind** | Luminosity | Snow |
|---|---|---|---|---|---|---|---|
| 1777464500 | 10° C | 99% | 1012.5 hPa | 0 mm | - | 29 W/m² | - |
| 1777464196 | 10° C | 99% | 1012.4 hPa | 0 mm | - | 40 W/m² | - |
| 1777463896 | 10° C | 99% | 1012.6 hPa | 0 mm | - | 30 W/m² | - |
| 1777463592 | 10° C | 99% | 1012.6 hPa | 0 mm | - | 22 W/m² | - |
| 1777463287 | 10° C | 99% | 1012.7 hPa | 0 mm | - | 16 W/m² | - |
| 1777462983 | 10° C | 99% | 1012.7 hPa | 0 mm | - | 13 W/m² | - |
| 1777462679 | 10° C | 99% | 1012.6 hPa | 0 mm | - | 12 W/m² | - |
| 1777462374 | 10° C | 99% | 1012.6 hPa | 0 mm | - | 10 W/m² | - |
| 1777462070 | 10° C | 99% | 1012.5 hPa | 0 mm | - | 8 W/m² | - |
| 1777461768 | 10° C | 99% | 1012.6 hPa | 0 mm | - | 6 W/m² | - |
| 1777461463 | 10° C | 99% | 1012.7 hPa | 0 mm | - | 3 W/m² | - |
| 1777461160 | 9.44° C | 99% | 1012.3 hPa | 0 mm | - | 4 W/m² | - |
| 1777460855 | 9.44° C | 99% | 1012.5 hPa | 0 mm | - | 3 W/m² | - |
| 1777460551 | 9.44° C | 99% | 1012.4 hPa | 0 mm | - | 3 W/m² | - |
| 1777460247 | 9.44° C | 99% | 1012.3 hPa | 0 mm | - | 3 W/m² | - |
| 1777459944 | 9.44° C | 99% | 1012.3 hPa | 0 mm | - | 3 W/m² | - |
| 1777459641 | 9.44° C | 99% | 1012.4 hPa | 0 mm | - | 1 W/m² | - |
| 1777459337 | 9.44° C | 99% | 1012.6 hPa | 0 mm | - | 0 W/m² | - |
| 1777459036 | 9.44° C | 99% | 1012.5 hPa | 0 mm | - | 0 W/m² | - |
| 1777458733 | 9.44° C | 99% | 1012.5 hPa | 0 mm | - | 0 W/m² | - |
| 1777458428 | 9.44° C | 99% | 1012.1 hPa | 0 mm | - | 0 W/m² | - |
| 1777458125 | 9.44° C | 99% | 1012.3 hPa | 0 mm | - | 0 W/m² | - |
| 1777457815 | 9.44° C | 99% | 1012.1 hPa | 0 mm | - | 0 W/m² | - |
| 1777457515 | 9.44° C | 99% | 1012.2 hPa | 0 mm | - | 0 W/m² | - |
| 1777457211 | 9.44° C | 99% | 1011.9 hPa | 0 mm | - | 0 W/m² | - |
* Rain latest hour (hover to see other rain measurements)
** Current wind speed in m/s (hover to see current wind gust speed)